Location: Waco, TX
(31.5480°N, 97.1670°W)
Time: 00:52:26
(UTC-06:00)

ISS - Pass Details

Date: 16 January 2018
Orbit: 402 x 407 km, 51.6° (Epoch: 21 January)

Event Time Altitude Azimuth Distance (km) Brightness Sun altitude
Rises 21:50:20 0° 219° (SW) 2,297 - -51.0°
Reaches altitude 10° 21:52:24 10° 217° (SW) 1,442 - -51.4°
Maximum altitude 21:55:37 69° 133° (SE) 431 - -52.1°
Drops below altitude 10° 21:58:51 10° 50° (NE) 1,452 - -52.8°
Sets 22:00:56 0° 48° (NE) 2,314 - -53.2°
